Saint Paul Island, AK

3:54 AM AKDT on May 24, 2017 (GMT -0800)
Saint Paul Island

Weather History for PASN - June, 2013

Change the Weather History Date:

Saturday, June 15, 2013

  Actual Average Record
Temperature  
Mean Temperature 42 °F 42 °F  
Max Temperature 45 °F 47 °F 58 °F (1986)
Min Temperature 39 °F 38 °F 24 °F (1968)
Degree Days  
Heating Degree Days 23 23  
Month to date heating degree days 380 364  
Since 1 June heating degree days 380 364  
Since 1 July heating degree days 11338 10485  
Cooling Degree Days 0    
Month to date cooling degree days 0  
Year to date cooling degree days 0  
Since 1 June cooling degree days 0  
Moisture  
Dew Point 41 °F    
Average Humidity 0    
Maximum Humidity 0    
Minimum Humidity 0    
Precipitation  
Precipitation 0.01 in 0.05 in 0.59 in (1981)
Month to date precipitation 0.34 0.61  
Year to date precipitation 7.52 6.77  
Snow  
Snow 0.00 in 0.00 in 0.00 in (2016)
Month to date snowfall 0.0 0.0  
Since 1 June snowfall 0.0 0.0  
Since 1 July snowfall 72.7 59.8  
Snow Depth 0.00 in    
Sea Level Pressure  
Sea Level Pressure 29.82 in    
Wind  
Wind Speed 16 mph (SSE)    
Max Wind Speed 23 mph    
Max Gust Speed 28 mph    
Visibility 3 miles    
Events Fog , Rain    
T = Trace of Precipitation, MM = Missing Value Source: NWS Daily Summary

Daily Weather History Graph

Daily Weather History Graph

Search for Another Location

Airport or City:

Trip Planner

Search our weather history database for the weather conditions in past years. The results will help you decide how hot, cold, wet, or windy it might be!

Date:

Astronomy

Jun. 15, 2013 Rise Set
Actual Time 6:24 AM AKDT 12:18 AM AKDT
Civil Twilight 5:15 AM AKDT 1:27 AM AKDT
Nautical Twilight 3:53 AM AKDT 2:49 AM AKDT
Astronomical Twilight Sun does not set Sun does not set
Moon 2:35 PM AKDT (6/15) 2:44 AM AKDT (6/15)
Length of Visible Light 20h 12m
Length of Day
17h 54m
Waxing Crescent, 41% of the Moon is Illuminated
Jun 15
Waxing Crescent
Jun 16
First Quarter
Jun 23
Full
Jun 29
Last Quarter
Jul 7
New

Hourly Weather History & Observations

Time (AKDT) Temp. Windchill Dew Point Humidity Pressure Visibility Wind Dir Wind Speed Gust Speed Precip Events Conditions
12:49 AM 39.2 °F 31.6 °F 39.2 °F 100% 29.76 in 1.2 mi SE 12.7 mph - 0.01 in Rain Light Rain
12:53 AM 39.9 °F 32.5 °F 39.9 °F 100% 29.76 in 1.0 mi SE 12.7 mph - 0.01 in Rain Light Rain
1:11 AM 39.2 °F 31.6 °F 39.2 °F 100% 29.76 in 1.0 mi SE 12.7 mph - 0.00 in   Mist
1:26 AM 39.2 °F 31.6 °F 39.2 °F 100% 29.76 in 0.8 mi SE 12.7 mph - 0.00 in   Mist
1:53 AM 39.9 °F 32.5 °F 39.9 °F 100% 29.75 in 0.5 mi SE 12.7 mph - 0.00 in Fog Fog
2:48 AM 39.2 °F 31.2 °F 39.2 °F 100% 29.73 in 0.8 mi SE 13.8 mph - N/A   Mist
2:53 AM 39.9 °F 32.1 °F 39.9 °F 100% 29.74 in 0.5 mi SE 13.8 mph - N/A Fog Fog
3:05 AM 39.2 °F 31.2 °F 39.2 °F 100% 29.73 in 0.8 mi SE 13.8 mph - N/A   Mist
3:27 AM 39.2 °F 32.0 °F 39.2 °F 100% 29.74 in 0.5 mi SE 11.5 mph - N/A Fog Fog
3:53 AM 39.0 °F 31.4 °F 39.0 °F 100% 29.73 in 0.8 mi SE 12.7 mph - N/A   Mist
4:09 AM 39.2 °F 32.0 °F 39.2 °F 100% 29.73 in 1.5 mi SE 11.5 mph - 0.00 in   Overcast
4:53 AM 39.9 °F 31.4 °F 39.9 °F 100% 29.73 in 2.0 mi SE 16.1 mph - 0.01 in   Overcast
5:07 AM 39.2 °F 30.8 °F 39.2 °F 100% 29.73 in 3.0 mi SE 15.0 mph 21.9 mph N/A   Overcast
5:18 AM 39.2 °F 30.2 °F 39.2 °F 100% 29.73 in 2.0 mi SE 17.3 mph - N/A   Overcast
5:29 AM 41.0 °F 32.2 °F 41.0 °F 100% 29.73 in 1.2 mi SSE 18.4 mph - N/A   Overcast
5:41 AM 39.2 °F 30.8 °F 39.2 °F 100% 29.72 in 0.8 mi SSE 15.0 mph - N/A   Mist
5:50 AM 41.0 °F 32.5 °F 41.0 °F 100% 29.72 in 0.5 mi SSE 17.3 mph - N/A Fog Fog
5:53 AM 41.0 °F 32.5 °F 41.0 °F 100% 29.74 in 0.5 mi SSE 17.3 mph - N/A Fog Fog
6:53 AM 41.0 °F 32.2 °F 41.0 °F 100% 29.74 in 0.5 mi SSE 18.4 mph - N/A Fog Fog
7:53 AM 39.9 °F 31.4 °F 39.9 °F 100% 29.75 in 0.2 mi SSE 16.1 mph - N/A Fog Fog
8:53 AM 39.9 °F 31.8 °F 39.9 °F 100% 29.77 in 0.5 mi SSE 15.0 mph - N/A Fog Fog
9:25 AM 39.2 °F 30.8 °F 39.2 °F 100% 29.77 in 1.0 mi South 15.0 mph - N/A   Mist
9:53 AM 41.0 °F 32.5 °F 41.0 °F 100% 29.78 in 1.5 mi South 17.3 mph - 0.00 in   Light Drizzle
10:53 AM 41.0 °F 31.6 °F 41.0 °F 100% 29.80 in 1.0 mi South 20.7 mph - 0.00 in   Overcast
11:20 AM 41.0 °F 32.5 °F 41.0 °F 100% 29.80 in 0.8 mi South 17.3 mph - N/A   Mist
11:42 AM 42.8 °F 34.3 °F 42.8 °F 100% 29.80 in 1.0 mi South 19.6 mph - N/A   Mist
11:49 AM 41.0 °F 31.9 °F 41.0 °F 100% 29.81 in 0.5 mi South 19.6 mph - N/A Fog Fog
11:53 AM 41.0 °F 32.5 °F 41.0 °F 100% 29.81 in 0.8 mi South 17.3 mph - N/A   Mist
12:11 PM 42.8 °F 34.5 °F 42.8 °F 100% 29.80 in 1.2 mi South 18.4 mph - N/A   Overcast
12:28 PM 42.8 °F 34.5 °F 42.8 °F 100% 29.81 in 0.5 mi South 18.4 mph - N/A Fog Fog
12:45 PM 42.8 °F 35.1 °F 42.8 °F 100% 29.81 in 0.8 mi South 16.1 mph - N/A   Mist
12:53 PM 41.0 °F 32.5 °F 41.0 °F 100% 29.82 in 0.8 mi South 17.3 mph - N/A   Mist
1:03 PM 42.8 °F 34.3 °F 42.8 °F 100% 29.81 in 0.5 mi South 19.6 mph - N/A Fog Fog
1:53 PM 41.0 °F 32.5 °F 41.0 °F 100% 29.84 in 0.2 mi SSE 17.3 mph - N/A Fog Fog
2:46 PM 42.8 °F 35.1 °F 42.8 °F 100% 29.85 in 1.0 mi SSE 16.1 mph - N/A   Mist
2:53 PM 42.1 °F 33.6 °F 42.1 °F 100% 29.85 in 1.8 mi SSE 18.4 mph - N/A   Overcast
3:12 PM 42.8 °F 34.0 °F 42.8 °F 100% 29.86 in 2.5 mi SSE 20.7 mph - N/A   Overcast
3:34 PM 42.8 °F 34.8 °F 42.8 °F 100% 29.87 in 1.8 mi SSE 17.3 mph - N/A   Overcast
3:40 PM 42.8 °F 35.1 °F 42.8 °F 100% 29.86 in 3.0 mi SSE 16.1 mph - N/A   Overcast
3:48 PM 42.8 °F 35.4 °F 42.8 °F 100% 29.87 in 1.8 mi SE 15.0 mph - N/A   Overcast
3:53 PM 42.1 °F 35.2 °F 42.1 °F 100% 29.87 in 2.0 mi SSE 12.7 mph - N/A   Overcast
4:01 PM 42.8 °F 35.8 °F 42.8 °F 100% 29.88 in 5.0 mi SSE 13.8 mph - N/A   Overcast
4:24 PM 41.0 °F 34.3 °F 41.0 °F 100% 29.89 in 4.0 mi SE 11.5 mph - N/A   Overcast
4:44 PM 42.8 °F 36.2 °F 41.0 °F 93% 29.88 in 9.0 mi SSE 12.7 mph - N/A   Overcast
4:53 PM 43.0 °F 36.4 °F 39.9 °F 89% 29.89 in 9.0 mi SSE 12.7 mph - N/A   Overcast
5:45 PM 44.6 °F 37.2 °F 39.2 °F 81% 29.91 in 10.0 mi SSE 17.3 mph - N/A   Overcast
5:53 PM 44.1 °F 36.8 °F 39.9 °F 85% 29.90 in 10.0 mi SSE 16.1 mph - N/A   Overcast
6:09 PM 44.6 °F 38.1 °F 39.2 °F 81% 29.91 in 10.0 mi SSE 13.8 mph - N/A   Overcast
6:53 PM 43.0 °F 35.1 °F 39.0 °F 86% 29.92 in 10.0 mi SE 17.3 mph - N/A   Overcast
7:53 PM 43.0 °F 34.5 °F 39.9 °F 89% 29.94 in 9.0 mi SSE 19.6 mph - N/A   Mostly Cloudy
8:42 PM 42.8 °F 34.3 °F 39.2 °F 87% 29.94 in 8.0 mi SSE 19.6 mph - N/A   Scattered Clouds
8:53 PM 43.0 °F 34.8 °F 39.9 °F 89% 29.95 in 8.0 mi SSE 18.4 mph - N/A   Clear
9:53 PM 42.1 °F 33.9 °F 39.0 °F 89% 29.97 in 8.0 mi SSE 17.3 mph - N/A   Clear
10:53 PM 39.9 °F 31.8 °F 39.0 °F 97% 29.99 in 7.0 mi SSE 15.0 mph - N/A   Clear
11:53 PM 39.0 °F 30.3 °F 37.9 °F 96% 30.01 in 7.0 mi SE 16.1 mph - N/A   Partly Cloudy